Location: Braidbach
(50.3849°N, 10.1890°E)
Time: 06:07:42
(UTC+00:00)

Daily predictions for brighter satellites

Satellite Brightness Start Highest point End
(mag) Time Altitude Azimuth Time Altitude Azimuth Time Altitude Azimuth
Cosmos 1697 Rocket 4.2 15:45:05 10° SE 15:48:38 17° E 15:52:12 10° ENE
Cosmos 2084 Rocket 3.7 15:45:48 10° NW 15:49:52 45° NE 15:53:56 10° ESE
Cosmos 1570 Rocket 4.1 15:45:05 10° NNW 15:50:28 84° ENE 15:55:47 10° SSE
Cosmos 1356 Rocket 3.3 15:46:28 10° S 15:50:30 76° E 15:54:36 10° NNE
Cosmos 836 Rocket 4.5 15:46:02 10° NNW 15:51:18 78° ENE 15:56:33 10° SSE
BREEZE M DEB (TANK) 4.4 15:35:12 10° W 15:54:20 76° SSW 15:58:52 10° ESE
Cosmos 724 4.3 15:49:25 10° NW 15:55:30 68° NE 16:01:24 10° SE
USA 215 3.6 15:51:53 10° ENE 15:58:13 53° N 16:04:33 10° W
Cosmos 1626 Rocket 3.5 15:54:54 10° N 15:59:14 64° ENE 16:03:29 10° SSE
Iridium 51 3.6 15:58:48 10° S 16:01:55 76° E 16:05:08 10° N
SL-16 R/B 2.6 15:56:09 10° NNE 16:02:22 65° ESE 16:08:30 10° S
Cosmos 773 Rocket 4.0 15:57:36 10° NNW 16:02:50 78° ENE 16:08:05 10° SSE
Cosmos 1867 3.8 15:58:39 10° NW 16:04:00 51° NE 16:09:18 10° ESE
CZ-2D R/B 3.9 16:01:54 10° ESE 16:04:24 22° ENE 16:06:54 10° NNE
Meteor 1-20 Rocket 4.4 16:03:57 10° N 16:09:14 47° ENE 16:14:29 10° SE
SAR-Lupe-4 4.3 16:07:27 10° SE 16:10:37 31° ENE 16:13:46 10° N
Cosmos 1656 3.8 16:05:35 10° SSW 16:11:09 66° ESE 16:16:47 10° NNE
Cosmos 1743 2.2 16:14:16 10° N 16:17:29 58° ENE 16:20:41 10° SSE
Cosmos 1782 2.5 16:14:02 10° S 16:17:36 64° E 16:21:10 10° NNE
Cosmos 1544 Rocket 3.5 16:13:57 10° S 16:18:19 69° E 16:22:45 10° NNE
ARIANE 5 R/B 2.6 16:16:16 10° SE 16:21:10 53° ENE 16:26:10 10° N
Cosmos 2297 Rocket 2.3 16:18:53 10° NNW 16:24:36 87° WSW 16:30:16 10° SSE
Cosmos 2208 Rocket 4.4 16:23:05 10° NNW 16:28:14 68° WSW 16:33:22 10° SSE
Okean 1-7 Rocket 3.7 16:26:47 10° N 16:31:06 51° ENE 16:35:21 10° SSE
MOS 1 Rocket 3.7 16:26:57 10° SE 16:31:40 48° ENE 16:36:40 10° N
IRS-P3 4.3 16:27:04 10° SE 16:32:09 48° ENE 16:37:16 10° N
NOSS 3-2 (A) 3.3 16:28:50 10° SW 16:33:57 76° NW 16:39:36 13° NE
SPOT 1/Viking Rocket 4.1 16:29:54 10° SE 16:34:37 36° ENE 16:39:21 10° N
NOSS 3-2 (C) 3.4 16:29:51 10° SSW 16:34:45 53° ESE 16:39:28 15° NE
NOSS 2-2 (D) 3.0 16:34:17 10° SW 16:37:30 62° NW 16:39:34 18° NE
Cosmos 1602 Rocket 3.5 16:33:30 10° N 16:37:56 85° E 16:42:17 10° S
Cosmos 1900 4.3 16:32:51 10° NW 16:37:57 82° NE 16:42:55 10° SE
Cosmos 2228 4.2 16:35:48 10° SSW 16:39:51 43° WNW 16:43:55 10° N
Cosmos 2219 3.9 16:37:41 10° NNW 16:42:49 32° NE 16:47:21 13° ESE
Cosmos 1655 Rocket 4.2 16:37:39 10° N 16:43:40 46° ENE 16:49:35 10° SE
Cosmos 783 Rocket 4.5 16:40:40 10° NNW 16:46:00 84° ENE 16:51:18 10° SSE
Meteor 1-25 Rocket 4.2 16:41:25 10° N 16:47:16 72° ENE 16:53:01 10° SSE
YAOGAN 1 3.4 16:43:51 10° ESE 16:47:28 28° ENE 16:51:07 10° N
Lacrosse 4 Rocket 3.4 16:45:04 10° W 16:48:05 20° NW 16:51:06 10° N
Cosmos 2279 Rocket 4.3 16:41:57 10° SSW 16:48:08 70° WNW 16:54:24 10° N
Meteor 1-5 Rocket 4.2 16:45:50 10° N 16:51:03 51° ENE 16:56:21 10° SSE
Cosmos 1980 Rocket 3.3 16:46:52 10° SSE 16:51:21 25° ESE 16:53:02 21° ENE
NOSS 7 (H) 4.0 16:48:43 10° NW 16:51:39 88° SW 16:54:49 10° SE
Cosmos 1844 Rocket 4.1 16:49:34 10° N 16:53:23 18° NNE 16:54:06 18° NE
Meteor 1-28 Rocket 4.0 16:50:11 10° N 16:53:25 44° WNW 16:56:36 10° SW
Cosmos 1538 Rocket 4.3 16:49:57 10° NNW 16:55:00 44° ENE 17:00:04 10° SE
NOSS 2-2 (E) 3.2 16:51:55 10° WSW 16:55:04 52° NW 16:56:34 25° NNE
GEOS 3 Rocket 3.7 16:54:13 17° NE 16:58:24 89° SE 17:03:47 10° SW
Thor Agena Rocket 4.5 16:55:16 10° S 17:00:20 51° W 17:05:22 10° NNW
Cosmos 1953 Rocket 3.8 16:56:58 10° N 17:01:16 46° ENE 17:05:34 10° SSE
Cosmos 2263 Rocket 2.3 16:55:42 10° NNW 17:01:16 54° NE 17:06:50 10° SE
UNK 3.9 16:58:41 10° N 17:03:16 73° WNW 17:07:48 10° SSW
Resurs 01 Rocket 3.9 17:08:42 10° NNE 17:08:42 10° NNE 17:08:46 10° NNE
Cosmos 1503 Rocket 3.9 17:00:17 10° SSW 17:05:33 90° ESE 17:09:56 15° NNE
Cosmos 2151 3.8 17:01:34 10° NNW 17:05:36 51° W 17:09:39 10° S
SMAP 4.0 17:02:40 10° S 17:07:12 51° W 17:11:45 10° NNW
Cosmos 1825 Rocket 3.5 17:07:02 10° N 17:11:24 87° W 17:15:43 10° S
Landsat 7 4.4 17:07:44 10° S 17:12:19 58° W 17:16:56 10° NNW
Lacrosse 5 rocket 2.2 17:09:43 10° WNW 17:13:03 30° N 17:13:51 27° NNE
Cosmos 1933 3.1 17:09:23 10° S 17:13:13 88° W 17:16:06 17° N
Cosmos 1354 Rocket 3.9 17:09:13 10° SSW 17:14:28 78° ESE 17:18:06 21° NNE
Cosmos 2227 Rocket 2.3 17:10:14 10° NNW 17:15:54 80° WSW 17:21:33 10° SSE
Cosmos 2098 Rocket 4.4 17:13:27 10° SW 17:17:27 41° WNW 17:22:07 10° N
CZ-4C R/B 3.5 17:11:20 10° NW 17:18:11 62° SW 17:26:40 10° SSE
CZ-4 R/B 4.2 17:15:46 10° SSE 17:19:42 82° ENE 17:23:40 10° NNW
CENTAUR R/B 3.7 17:14:06 10° W 17:19:54 37° NNW 17:24:42 19° NE
Spot 4 Rocket 3.9 17:15:09 10° SSE 17:20:11 61° ENE 17:25:14 10° N
Cosmos 2369 Rocket 4.5 17:18:21 10° NW 17:21:10 14° NNW 17:24:00 10° N
Cosmos 1777 Rocket 4.5 17:18:05 10° SW 17:23:16 59° WNW 17:27:37 15° NNE
Cosmos 1461 2.9 17:21:20 10° SW 17:25:13 65° NW 17:26:27 40° NNE
NOSS 2-3 (C) 3.9 17:22:11 10° SSW 17:24:49 34° SSE 17:24:49 34° SSE
USA 281 4.5 17:26:34 20° NE 17:26:34 20° NE 17:31:05 10° N
Cosmos 1898 Rocket 4.3 17:22:45 10° SSE 17:26:40 31° ESE 17:26:40 31° ESE
Cosmos 1697 Rocket 2.6 17:26:12 10° SSW 17:31:49 87° WNW 17:35:02 27° NNE
Cosmos 2058 Rocket 3.3 17:28:50 10° SSE 17:32:46 48° ESE 17:32:46 48° ESE
Cosmos 1076 Rocket 3.6 17:30:48 10° NNW 17:35:06 77° W 17:39:25 10° S
USA 238 DEB 3.7 17:29:18 10° SSW 17:35:09 49° ESE 17:36:54 39° E
USA 238 3.7 17:29:25 10° SSW 17:35:16 49° ESE 17:36:59 39° E
Nadezhda 2 Rocket 4.5 17:29:27 10° N 17:35:29 55° ENE 17:41:27 10° SSE
CZ-2D R/B 3.4 17:32:26 10° SSE 17:36:38 86° WSW 17:40:49 10° NNW
Cosmos 923 Rocket 4.3 17:32:05 10° NNW 17:36:47 43° NE 17:36:47 43° NE
PSLV R/B 3.2 17:39:37 66° SE 17:40:04 75° ENE 17:44:08 10° N
Meteor 2-2 Rocket 4.3 17:34:51 10° SSE 17:40:17 51° E 17:41:15 46° ENE
USA 215 3.5 17:38:19 37° ENE 17:40:43 54° N 17:47:04 10° WNW
Meteor 2-10 4.0 17:35:32 10° N 17:40:54 81° ENE 17:46:27 10° SSE
COSMO-SKYMED 1 2.8 17:44:14 48° SSE 17:44:14 48° SSE 17:47:24 10° S
SL-19 R/B 4.1 17:38:43 10° SSE 17:44:06 82° ENE 17:49:50 10° NNW
Cosmos 372 Rocket 4.0 17:39:53 10° S 17:44:53 54° ESE 17:44:54 54° ESE
SL-16 R/B 4.2 17:40:16 10° N 17:45:30 29° NW 17:50:43 10° WSW
Cosmos 1553 Rocket 4.0 17:40:43 10° SSE 17:46:38 52° E 17:48:27 40° NE
Cosmos 1606 Rocket 4.5 17:42:32 10° SSW 17:46:47 48° WNW 17:50:34 13° N
IRAS Rocket 4.1 17:41:52 10° SSE 17:47:21 85° ENE 17:52:51 10° NNW
OceanSat 1 rocket 4.4 17:46:45 10° SSE 17:51:31 85° ENE 17:56:15 10° NNW
Gbstr 26 Del rocket 3.1 17:47:50 10° WSW 17:51:08 54° SSW 17:51:08 54° SSW
Aureole 1 Rocket 3.2 17:49:00 10° SSW 17:53:25 69° ESE 17:53:31 69° E
Cosmos 44 Rocket 4.5 17:49:36 10° NNW 17:53:07 30° N 17:53:07 30° N
NOSS 2-3 (E) 3.7 17:52:04 10° SW 17:54:56 54° SW 17:54:56 54° SW
Resurs 1-3 3.8 17:52:39 10° S 17:56:56 68° WSW 18:01:15 10° NNW
NOSS 2-3 (D) 3.8 17:53:20 10° SW 17:56:08 51° SW 17:56:08 51° SW
Cosmos 990 Rocket 4.4 17:52:07 10° SW 17:57:11 59° WNW 17:59:30 31° N
Cosmos 2082 3.6 17:56:50 10° NNW 18:02:36 80° ENE 18:03:40 60° SE
USA 81 4.4 18:00:13 10° NNW 18:05:27 65° W 18:10:39 10° S
NOAA 6 4.0 18:01:07 10° SSE 18:06:14 81° WSW 18:11:22 10° NNW
Cosmos 1244 Rocket 4.5 18:00:20 10° N 18:06:39 84° W 18:12:52 10° S
Cosmos 1680 Rocket 4.4 18:04:49 10° NNW 18:08:02 36° N 18:08:02 36° N
Meteor 1-26 Rocket 4.0 18:06:05 10° S 18:11:30 88° E 18:11:51 79° NNE
YAOGAN 1 4.0 18:19:18 10° SSW 18:23:13 36° W 18:27:11 10° NNW
NOSS 3-2 (C) 4.1 18:20:39 10° WSW 18:25:45 42° NNW 18:26:53 39° N
Cosmos 2219 3.7 18:21:40 10° NW 18:27:18 59° WSW 18:29:22 37° S
Cosmos 1386 Rocket 4.3 18:22:57 10° N 18:28:46 82° N 18:28:46 82° N
Cosmos 1980 Rocket 2.4 18:29:15 10° SW 18:34:48 65° WNW 18:34:48 65° WNW
Cosmos 1844 Rocket 3.9 18:32:47 10° NNW 18:35:46 31° NNW 18:35:46 31° NNW
BREEZE-M DEB (TANK) 4.4 18:33:24 10° SW 18:37:39 33° SSW 18:37:39 33° SSW
Cosmos 2263 Rocket 3.9 18:40:01 10° NW 18:44:56 31° WSW 18:49:50 10° SSW
Lacrosse 5 rocket 4.3 18:47:24 10° NW 18:47:25 10° NW 18:47:25 10° NW
CENTAUR R/B 4.1 19:06:24 10° NW 19:11:48 31° N 19:11:48 31° N
USA 215 4.0 19:25:40 47° WNW 19:25:40 47° WNW 19:30:07 10° WNW
